Rbgn^[z[y[W
メイン
   新天体発見情報
     Comet C/2020 K2 (PANSTARRS)
投稿するにはまず登録を

スレッド表示 | 新しいものから 前のトピック | 次のトピック | 下へ
投稿者 スレッド
佐藤裕久
投稿日時: 2020-6-28 14:19
モデレータ
登録日: 2005-6-12
居住地: 日本
投稿: 2087
オンライン
Comet C/2020 K2 (PANSTARRS)

R. Weryk (ハワイ大学, 天文学研究所)の通報によると、5月21日、HaleakalaにあるPan-STARRS1 
1.8-m Ritchey-Chretien反射望遠鏡で得た45秒露出3枚のw-バンド画像から彗星を発見した。
この彗星は集光した1.3"のシーイングで半値全幅(FWHM)が2".2のコマがあり、p.a. 135-150°
に広い尾があると説明があった。
小惑星センターのPCCP webpageに公表後、佐藤英貴氏(東京都文京区, iTelescope天文台,
5月22.43-22.44日UT、60秒露出12枚のスタック, 0.51-m f/6.8 アストログラフ, Mayhill近郊, 
カリフォルニア州, 遠隔操作:強く集光した8" のコマが見えるが尾はない。4".9の円形範囲で
測定した光度は20.2等であった)らCCD位置観測者によって彗星状と観測された。

彗星機能の追加報告は次の通り:

OC   Date        Reporter           Coma    Tail    PA          Exposures
F51  2020-05-21  R. Weryk            1"       6"    135-150       3x45s
H06  2020-05-22  H. Sato             8"                          12x60s
N88  2020-05-23  Q.-Z. Ye            4"

発見位置は次のとおり、

     2020 UT             R.A. (2000) Decl.       Mag.
     May  21.56926   19 01 34.76   +45 07 16.7   20.5
          21.57976   19 01 34.42   +45 07 21.4   20.4
          21.59030   19 01 34.12   +45 07 25.8   20.6
          21.60083   19 01 33.78   +45 07 30.5   20.4

MPCの暫定放物線軌道要素と位置推算表は次のとおり、

Orbital elements:
    C/2020 K2 (PANSTARRS)                                                       
T 2018 Dec. 30.67299 TT                                 Rudenko                 
q   8.1770976            (2000.0)            P               Q                  
                   Peri.   34.23480     +0.22443034     -0.14765760             
                   Node   285.58189     -0.95381974     +0.16922274             
e   1.0            Incl.   89.75095     +0.19964699     +0.97445415             
From 27 observations 2020 May 21-24.                                            
                                                                                
Ephemeris:
Date    TT    R. A. (2000) Decl.     Delta      r    Elong.  Phase   m1
2020 04 24    19 11 05.6 +41 17 52   8.5788  8.6677    91.7     6.7  20.5
...
2020 05 09    19 06 56.6 +43 28 02   8.5040  8.6976    97.7     6.6  20.5
...
2020 05 17    19 03 43.4 +44 32 31   8.4724  8.7138   100.5     6.6  20.5
...
2020 05 23    19 00 51.9 +45 17 47   8.4533  8.7262   102.4     6.5  20.5
2020 05 24    19 00 21.1 +45 25 01   8.4505  8.7282   102.6     6.5  20.5
2020 05 25    18 59 49.8 +45 32 11   8.4478  8.7303   102.9     6.5  20.5
...
2020 05 31    18 56 30.1 +46 13 08   8.4344  8.7428   104.5     6.4  20.5
...
2020 06 08    18 51 35.2 +47 01 59   8.4234  8.7596   106.1     6.4  20.6
...
2020 06 23    18 41 14.5 +48 13 33   8.4252  8.7918   108.0     6.3  20.6

(MPEC 2020-K155、CBET 4781)

スレッド表示 | 新しいものから 前のトピック | 次のトピック | トップ

投稿するにはまず登録を
 
© 1999 Tsutomu Seki.